EUTELSAT 7C

Last updated on Sun Jun 21 2026 00:03:08 GMT+0000 (Coordinated Universal Time)

1 44334U 19034B 26171.03691044 .00000043 00000+0 00000+0 0 9994 2 44334 0.0727 176.6467 0003148 255.4742 216.4246 1.00270984 6864
UTC large
Height (km)
Speed (km/s)
/
Latitude / Longitude
Inclination (degrees)
Orbital Period (minutes)
Azimuth
Elevation
Range (km)
Doppler Factor

Next 0 passes for location: London (51.5072 / 0.1276)

No passes found over London.
EUTELSAT 7C